QTR8179 SEQM-MPTO

Flight info

Callsign QTR8179
Flight time 1h 16m
Altitude 34000
Route NEGAL3A NEGAL DCT ENSOL UM674 TOKUT DCT MILAT DCT SIRIL SIRIL3B
Aircraft B77L/H-SDE1E2E3FGHIJ2J3J4J5M1RWXY/LB1D1

Departure

Time 2026-04-30 02:24
Airport Mariscal Sucre International Airport (SEQM)

Arrival

Time 2026-04-30 03:41
Airport Tocumen International Airport (MPTO)
Time Latitude Longitude Altitude Speed Heading
2026-04-30 02:11 -0.12908 -78.35765 7842 ft 0 kts 267°
2026-04-30 02:12 -0.12908 -78.35758 7870 ft 2 kts 266°
2026-04-30 02:12 -0.12906 -78.35742 7871 ft 2 kts 265°
2026-04-30 02:12 -0.12904 -78.35726 7871 ft 2 kts 261°
2026-04-30 02:12 -0.12901 -78.35710 7872 ft 2 kts 257°
2026-04-30 02:13 -0.12897 -78.35694 7872 ft 2 kts 249°
2026-04-30 02:13 -0.12890 -78.35679 7872 ft 2 kts 232°
2026-04-30 02:13 -0.12878 -78.35668 7871 ft 2 kts 198°
2026-04-30 02:13 -0.12866 -78.35665 7871 ft 1 kts 178°
2026-04-30 02:14 -0.12865 -78.35666 7871 ft 0 kts 178°
2026-04-30 02:16 -0.12933 -78.35671 7874 ft 21 kts 183°
2026-04-30 02:16 -0.13086 -78.35667 7879 ft 22 kts 178°
2026-04-30 02:17 -0.13238 -78.35661 7885 ft 22 kts 178°
2026-04-30 02:17 -0.13392 -78.35655 7889 ft 22 kts 178°
2026-04-30 02:17 -0.13545 -78.35643 7894 ft 22 kts 164°
2026-04-30 02:17 -0.13696 -78.35629 7899 ft 22 kts 179°
2026-04-30 02:18 -0.13774 -78.35586 7910 ft 13 kts 119°
2026-04-30 02:18 -0.13857 -78.35555 7912 ft 13 kts 174°
2026-04-30 02:18 -0.13948 -78.35550 7910 ft 13 kts 177°
2026-04-30 02:18 -0.14040 -78.35545 7916 ft 13 kts 177°
2026-04-30 02:19 -0.14132 -78.35541 7921 ft 13 kts 178°
2026-04-30 02:19 -0.14198 -78.35537 7923 ft 6 kts 170°
2026-04-30 02:19 -0.14221 -78.35528 7927 ft 0 kts 151°
2026-04-30 02:20 -0.14227 -78.35523 7925 ft 0 kts 141°
2026-04-30 02:20 -0.14243 -78.35502 7926 ft 7 kts 116°
2026-04-30 02:21 -0.14247 -78.35490 7920 ft 0 kts 108°
2026-04-30 02:21 -0.14251 -78.35474 7923 ft 11 kts 102°
2026-04-30 02:21 -0.14245 -78.35376 7925 ft 9 kts 62°
2026-04-30 02:22 -0.14187 -78.35370 7924 ft 0 kts 356°
2026-04-30 02:23 -0.14145 -78.35372 7920 ft 18 kts 356°
2026-04-30 02:23 -0.13922 -78.35381 7905 ft 50 kts 358°
2026-04-30 02:23 -0.13324 -78.35406 7891 ft 122 kts 358°
2026-04-30 02:23 -0.12236 -78.35447 7851 ft 186 kts 359°
2026-04-30 02:24 -0.10913 -78.35506 8386 ft 189 kts 358°
2026-04-30 02:24 -0.09534 -78.35581 8800 ft 211 kts 359°
2026-04-30 02:24 -0.07974 -78.35681 9035 ft 236 kts 356°
2026-04-30 02:24 -0.06324 -78.36028 9440 ft 250 kts 342°
2026-04-30 02:25 -0.04618 -78.36652 9759 ft 275 kts 340°
2026-04-30 02:25 -0.02871 -78.37319 10207 ft 291 kts 340°
2026-04-30 02:25 -0.00860 -78.38074 10495 ft 318 kts 341°
2026-04-30 02:25 0.01307 -78.38863 10611 ft 346 kts 341°
2026-04-30 02:26 0.03680 -78.39708 10803 ft 369 kts 341°
2026-04-30 02:26 0.06130 -78.40568 11401 ft 380 kts 341°
2026-04-30 02:26 0.08656 -78.41445 12092 ft 389 kts 342°
2026-04-30 02:26 0.11234 -78.42337 12948 ft 392 kts 342°
2026-04-30 02:27 0.13819 -78.43230 13801 ft 397 kts 342°
2026-04-30 02:27 0.16478 -78.44086 14446 ft 403 kts 347°
2026-04-30 02:27 0.19247 -78.44602 15166 ft 407 kts 354°
2026-04-30 02:27 0.22055 -78.44974 15900 ft 410 kts 354°
2026-04-30 02:28 0.24904 -78.45351 16648 ft 414 kts 354°
2026-04-30 02:28 0.27774 -78.45730 17318 ft 419 kts 354°
2026-04-30 02:28 0.30676 -78.46103 17954 ft 423 kts 354°
2026-04-30 02:28 0.33599 -78.46499 18584 ft 427 kts 354°
2026-04-30 02:29 0.36547 -78.46911 19158 ft 430 kts 354°
2026-04-30 02:29 0.39526 -78.47334 19755 ft 432 kts 354°
2026-04-30 02:29 0.42528 -78.47759 20291 ft 436 kts 354°
2026-04-30 02:29 0.45553 -78.48183 20827 ft 440 kts 353°
2026-04-30 02:30 0.48588 -78.48606 21393 ft 443 kts 353°
2026-04-30 02:30 0.51653 -78.49035 21929 ft 446 kts 354°
2026-04-30 02:30 0.54704 -78.49462 22431 ft 450 kts 354°
2026-04-30 02:30 0.57851 -78.49902 22975 ft 453 kts 353°
2026-04-30 02:31 0.60972 -78.50339 23450 ft 457 kts 354°
2026-04-30 02:31 0.64106 -78.50778 23895 ft 460 kts 354°
2026-04-30 02:31 0.67298 -78.51226 24356 ft 462 kts 353°
2026-04-30 02:31 0.70535 -78.51680 24814 ft 465 kts 353°
2026-04-30 02:32 0.73741 -78.52129 25248 ft 467 kts 352°
2026-04-30 02:32 0.76969 -78.52581 25618 ft 470 kts 352°
2026-04-30 02:32 0.80207 -78.53035 26039 ft 472 kts 352°
2026-04-30 02:32 0.83476 -78.53492 26461 ft 475 kts 352°
2026-04-30 02:33 0.86724 -78.53947 26871 ft 477 kts 352°
2026-04-30 02:33 0.90005 -78.54406 27250 ft 479 kts 352°
2026-04-30 02:33 0.93332 -78.54872 27642 ft 482 kts 352°
2026-04-30 02:33 0.96664 -78.55338 28050 ft 484 kts 352°
2026-04-30 02:34 1.00010 -78.55807 28452 ft 487 kts 352°
2026-04-30 02:34 1.03369 -78.56277 28810 ft 490 kts 352°
2026-04-30 02:34 1.06756 -78.56751 29134 ft 493 kts 352°
2026-04-30 02:34 1.10171 -78.57229 29497 ft 495 kts 351°
2026-04-30 02:35 1.13592 -78.57708 29844 ft 498 kts 352°
2026-04-30 02:35 1.17031 -78.58190 30152 ft 500 kts 351°
2026-04-30 02:35 1.20471 -78.58671 30451 ft 501 kts 351°
2026-04-30 02:35 1.23938 -78.59156 30810 ft 501 kts 351°
2026-04-30 02:36 1.27384 -78.59638 31170 ft 502 kts 351°
2026-04-30 02:36 1.30852 -78.60124 31533 ft 502 kts 351°
2026-04-30 02:36 1.34278 -78.60603 31882 ft 503 kts 351°
2026-04-30 02:36 1.37745 -78.61089 32222 ft 504 kts 351°
2026-04-30 02:37 1.41217 -78.61575 32596 ft 504 kts 351°
2026-04-30 02:37 1.44709 -78.62064 32966 ft 505 kts 351°
2026-04-30 02:37 1.48181 -78.62550 33327 ft 506 kts 351°
2026-04-30 02:37 1.51675 -78.63039 33653 ft 507 kts 351°
2026-04-30 02:38 1.55176 -78.63530 33856 ft 511 kts 351°
2026-04-30 02:38 1.62243 -78.64520 33883 ft 511 kts 351°
2026-04-30 02:39 1.69236 -78.65498 33868 ft 506 kts 351°
2026-04-30 02:39 1.76202 -78.66474 33862 ft 505 kts 351°
2026-04-30 02:40 1.83165 -78.67449 33858 ft 505 kts 351°
2026-04-30 02:40 1.90136 -78.68425 33853 ft 507 kts 350°
2026-04-30 02:41 1.95965 -78.69242 33856 ft 509 kts 350°
2026-04-30 02:41 2.04190 -78.70395 33876 ft 515 kts 350°
2026-04-30 02:42 2.11302 -78.71391 33882 ft 517 kts 350°
2026-04-30 02:42 2.17279 -78.72229 33876 ft 517 kts 350°
2026-04-30 02:43 2.24395 -78.73225 33875 ft 516 kts 350°
2026-04-30 02:43 2.31463 -78.74215 33871 ft 515 kts 350°
2026-04-30 02:44 2.38552 -78.75209 33871 ft 514 kts 350°
2026-04-30 02:44 2.45618 -78.76199 33874 ft 513 kts 350°
2026-04-30 02:45 2.52702 -78.77193 33877 ft 512 kts 350°
2026-04-30 02:45 2.59758 -78.78182 33874 ft 512 kts 350°
2026-04-30 02:46 2.66814 -78.79172 33878 ft 512 kts 350°
2026-04-30 02:46 2.73868 -78.80161 33870 ft 511 kts 350°
2026-04-30 02:47 2.80917 -78.81149 33871 ft 511 kts 350°
2026-04-30 02:47 2.87948 -78.82136 33871 ft 511 kts 350°
2026-04-30 02:48 2.94955 -78.83119 33869 ft 511 kts 350°
2026-04-30 02:48 3.02002 -78.84107 33867 ft 512 kts 349°
2026-04-30 02:49 3.09069 -78.85099 33871 ft 513 kts 349°
2026-04-30 02:49 3.16133 -78.86091 33870 ft 514 kts 349°
2026-04-30 02:50 3.23216 -78.87085 33866 ft 514 kts 349°
2026-04-30 02:50 3.30301 -78.88079 33870 ft 515 kts 349°
2026-04-30 02:51 3.37401 -78.89076 33871 ft 515 kts 349°
2026-04-30 02:51 3.44493 -78.90072 33865 ft 515 kts 349°
2026-04-30 02:52 3.51593 -78.91069 33866 ft 515 kts 349°
2026-04-30 02:52 3.58677 -78.92064 33865 ft 514 kts 349°
2026-04-30 02:53 3.65719 -78.93053 33865 ft 514 kts 349°
2026-04-30 02:53 3.72850 -78.94055 33866 ft 513 kts 349°
2026-04-30 02:54 3.79915 -78.95048 33863 ft 514 kts 349°
2026-04-30 02:54 3.86956 -78.96038 33867 ft 514 kts 349°
2026-04-30 02:55 3.94038 -78.97033 33863 ft 514 kts 349°
2026-04-30 02:55 4.01128 -78.98030 33863 ft 514 kts 349°
2026-04-30 02:56 4.08231 -78.99029 33863 ft 515 kts 349°
2026-04-30 02:56 4.15319 -79.00026 33854 ft 516 kts 349°
2026-04-30 02:57 4.22447 -79.01029 33866 ft 517 kts 349°
2026-04-30 02:57 4.29551 -79.02029 33867 ft 519 kts 349°
2026-04-30 02:58 4.36709 -79.03036 33864 ft 520 kts 349°
2026-04-30 02:58 4.43887 -79.04046 33864 ft 521 kts 349°
2026-04-30 02:59 4.51065 -79.05057 33862 ft 521 kts 349°
2026-04-30 02:59 4.58249 -79.06068 33866 ft 521 kts 349°
2026-04-30 03:00 4.65436 -79.07080 33862 ft 521 kts 349°
2026-04-30 03:00 4.72603 -79.08090 33864 ft 520 kts 349°
2026-04-30 03:01 4.79743 -79.09096 33866 ft 520 kts 349°
2026-04-30 03:01 4.86947 -79.10111 33863 ft 519 kts 349°
2026-04-30 03:02 4.94055 -79.11113 33863 ft 519 kts 349°
2026-04-30 03:02 5.01213 -79.12122 33862 ft 519 kts 349°
2026-04-30 03:03 5.08356 -79.13130 33863 ft 518 kts 349°
2026-04-30 03:03 5.19074 -79.14642 33863 ft 518 kts 349°
2026-04-30 03:04 5.26226 -79.15651 33867 ft 518 kts 349°
2026-04-30 03:04 5.33371 -79.16659 33863 ft 518 kts 349°
2026-04-30 03:05 5.40516 -79.17668 33864 ft 518 kts 349°
2026-04-30 03:05 5.47611 -79.18670 33862 ft 518 kts 349°
2026-04-30 03:06 5.54754 -79.19678 33863 ft 518 kts 349°
2026-04-30 03:06 5.61889 -79.20686 33863 ft 518 kts 349°
2026-04-30 03:07 5.69035 -79.21696 33863 ft 518 kts 349°
2026-04-30 03:07 5.76175 -79.22705 33864 ft 518 kts 349°
2026-04-30 03:08 5.83265 -79.23708 33864 ft 518 kts 349°
2026-04-30 03:08 5.90437 -79.24722 33863 ft 518 kts 349°
2026-04-30 03:09 5.97540 -79.25727 33862 ft 518 kts 349°
2026-04-30 03:09 6.04687 -79.26738 33861 ft 519 kts 349°
2026-04-30 03:10 6.11843 -79.27751 33869 ft 519 kts 349°
2026-04-30 03:10 6.19011 -79.28766 33865 ft 520 kts 349°
2026-04-30 03:11 6.26189 -79.29782 33863 ft 521 kts 349°
2026-04-30 03:11 6.33386 -79.30724 33861 ft 522 kts 352°
2026-04-30 03:12 6.40651 -79.31246 33860 ft 523 kts 354°
2026-04-30 03:12 6.47879 -79.31653 33868 ft 524 kts 354°
2026-04-30 03:13 6.55158 -79.32104 33866 ft 524 kts 354°
2026-04-30 03:13 6.62435 -79.32597 33866 ft 524 kts 354°
2026-04-30 03:14 6.69716 -79.33102 33866 ft 524 kts 354°
2026-04-30 03:14 6.76996 -79.33605 33866 ft 524 kts 354°
2026-04-30 03:15 6.84267 -79.34105 33866 ft 524 kts 354°
2026-04-30 03:15 6.91429 -79.34594 33852 ft 506 kts 354°
2026-04-30 03:16 6.94906 -79.34830 33806 ft 492 kts 354°
2026-04-30 03:16 6.98279 -79.35059 33638 ft 481 kts 354°
2026-04-30 03:16 7.01574 -79.35284 33125 ft 468 kts 354°
2026-04-30 03:16 7.04809 -79.35507 32293 ft 464 kts 354°
2026-04-30 03:17 7.08003 -79.35729 31475 ft 458 kts 354°
2026-04-30 03:17 7.11183 -79.35949 30740 ft 452 kts 355°
2026-04-30 03:17 7.14280 -79.36163 30073 ft 444 kts 355°
2026-04-30 03:17 7.17330 -79.36373 29330 ft 436 kts 355°
2026-04-30 03:18 7.20345 -79.36581 28565 ft 429 kts 355°
2026-04-30 03:18 7.23302 -79.36784 27792 ft 423 kts 355°
2026-04-30 03:18 7.26216 -79.36985 27092 ft 415 kts 355°
2026-04-30 03:18 7.29037 -79.37178 26703 ft 396 kts 355°
2026-04-30 03:19 7.31735 -79.37363 26329 ft 386 kts 355°
2026-04-30 03:19 7.34418 -79.37548 25971 ft 385 kts 355°
2026-04-30 03:19 7.37056 -79.37730 25611 ft 386 kts 355°
2026-04-30 03:19 7.39750 -79.37916 25232 ft 390 kts 355°
2026-04-30 03:20 7.42480 -79.38104 24853 ft 396 kts 355°
2026-04-30 03:20 7.45220 -79.38293 24446 ft 390 kts 356°
2026-04-30 03:20 7.47898 -79.38476 24074 ft 380 kts 355°
2026-04-30 03:20 7.50501 -79.38655 23715 ft 369 kts 355°
2026-04-30 03:21 7.53027 -79.38829 23330 ft 359 kts 355°
2026-04-30 03:21 7.55488 -79.38998 22937 ft 350 kts 355°
2026-04-30 03:21 7.57888 -79.39163 22604 ft 351 kts 355°
2026-04-30 03:21 7.60358 -79.39334 22271 ft 363 kts 355°
2026-04-30 03:22 7.62934 -79.39512 21916 ft 378 kts 355°
2026-04-30 03:22 7.65581 -79.39695 21530 ft 384 kts 356°
2026-04-30 03:22 7.68257 -79.39880 21132 ft 385 kts 356°
2026-04-30 03:22 7.70928 -79.40064 20738 ft 384 kts 356°
2026-04-30 03:23 7.73592 -79.40247 20361 ft 381 kts 356°
2026-04-30 03:23 7.76222 -79.40428 19971 ft 379 kts 356°
2026-04-30 03:23 7.78853 -79.40610 19583 ft 377 kts 356°
2026-04-30 03:23 7.81464 -79.40790 19193 ft 375 kts 356°
2026-04-30 03:24 7.84058 -79.40969 18811 ft 373 kts 356°
2026-04-30 03:24 7.86648 -79.41147 18426 ft 371 kts 356°
2026-04-30 03:24 7.89205 -79.41323 18081 ft 368 kts 357°
2026-04-30 03:24 7.91749 -79.41499 17720 ft 364 kts 357°
2026-04-30 03:25 7.94256 -79.41671 17344 ft 360 kts 358°
2026-04-30 03:25 7.96755 -79.41844 16972 ft 357 kts 357°
2026-04-30 03:25 7.99229 -79.42015 16605 ft 354 kts 356°
2026-04-30 03:25 8.01670 -79.42183 16240 ft 351 kts 357°
2026-04-30 03:26 8.04096 -79.42351 15868 ft 348 kts 357°
2026-04-30 03:26 8.06491 -79.42517 15514 ft 345 kts 357°
2026-04-30 03:26 8.08874 -79.42681 15160 ft 342 kts 357°
2026-04-30 03:26 8.11245 -79.42844 14803 ft 339 kts 356°
2026-04-30 03:27 8.13560 -79.43004 14457 ft 337 kts 357°
2026-04-30 03:27 8.15901 -79.43165 14102 ft 337 kts 357°
2026-04-30 03:27 8.18294 -79.43330 13742 ft 343 kts 357°
2026-04-30 03:27 8.20666 -79.43493 13342 ft 349 kts 357°
2026-04-30 03:28 8.23096 -79.43661 12960 ft 353 kts 356°
2026-04-30 03:28 8.25564 -79.43832 12577 ft 357 kts 357°
2026-04-30 03:28 8.28055 -79.44004 12187 ft 361 kts 357°
2026-04-30 03:28 8.30567 -79.44178 11807 ft 364 kts 357°
2026-04-30 03:29 8.33117 -79.44354 11419 ft 367 kts 357°
2026-04-30 03:29 8.35673 -79.44530 11018 ft 370 kts 356°
2026-04-30 03:29 8.38263 -79.44710 10620 ft 373 kts 356°
2026-04-30 03:29 8.39981 -79.44828 10391 ft 374 kts 356°
2026-04-30 03:30 8.42541 -79.45006 10225 ft 369 kts 356°
2026-04-30 03:30 8.45953 -79.45242 10001 ft 364 kts 357°
2026-04-30 03:30 8.47623 -79.45358 9837 ft 363 kts 356°
2026-04-30 03:30 8.50079 -79.45528 9525 ft 341 kts 357°
2026-04-30 03:31 8.52363 -79.45688 9218 ft 317 kts 357°
2026-04-30 03:31 8.54472 -79.45834 8886 ft 293 kts 356°
2026-04-30 03:31 8.56450 -79.45971 8403 ft 278 kts 357°
2026-04-30 03:31 8.58323 -79.46101 8028 ft 259 kts 357°
2026-04-30 03:32 8.60066 -79.46221 7735 ft 247 kts 357°
2026-04-30 03:32 8.61820 -79.46341 7497 ft 260 kts 357°
2026-04-30 03:32 8.63664 -79.46467 7223 ft 273 kts 357°
2026-04-30 03:32 8.65596 -79.46600 6927 ft 279 kts 357°
2026-04-30 03:33 8.67534 -79.46734 6617 ft 278 kts 357°
2026-04-30 03:33 8.69414 -79.46866 6295 ft 265 kts 357°
2026-04-30 03:33 8.71221 -79.46991 5973 ft 256 kts 357°
2026-04-30 03:33 8.72973 -79.47112 5689 ft 253 kts 357°
2026-04-30 03:34 8.74743 -79.47234 5417 ft 257 kts 357°
2026-04-30 03:34 8.76534 -79.47358 5129 ft 258 kts 357°
2026-04-30 03:34 8.78316 -79.47481 4826 ft 254 kts 357°
2026-04-30 03:34 8.80042 -79.47601 4543 ft 249 kts 357°
2026-04-30 03:35 8.81757 -79.47721 4264 ft 247 kts 358°
2026-04-30 03:35 8.83483 -79.47840 4031 ft 244 kts 358°
2026-04-30 03:35 8.85164 -79.47956 3745 ft 247 kts 357°
2026-04-30 03:35 8.86869 -79.48075 3598 ft 243 kts 357°
2026-04-30 03:36 8.88494 -79.48098 3422 ft 225 kts 11°
2026-04-30 03:36 8.89924 -79.47569 3179 ft 213 kts 25°
2026-04-30 03:36 8.91201 -79.46938 2914 ft 196 kts 27°
2026-04-30 03:36 8.92350 -79.46305 2668 ft 180 kts 29°
2026-04-30 03:37 8.93410 -79.45705 2439 ft 168 kts 29°
2026-04-30 03:37 8.94382 -79.45153 2237 ft 153 kts 28°
2026-04-30 03:37 8.95262 -79.44654 2091 ft 143 kts 28°
2026-04-30 03:37 8.96127 -79.44162 1895 ft 142 kts 28°
2026-04-30 03:38 8.96993 -79.43671 1700 ft 143 kts 27°
2026-04-30 03:38 8.97868 -79.43174 1532 ft 147 kts 27°
2026-04-30 03:38 8.98767 -79.42663 1365 ft 150 kts 28°
2026-04-30 03:38 8.99654 -79.42160 1131 ft 142 kts 27°
2026-04-30 03:39 9.00509 -79.41675 963 ft 142 kts 28°
2026-04-30 03:39 9.01394 -79.41172 805 ft 148 kts 27°
2026-04-30 03:39 9.02305 -79.40655 626 ft 152 kts 28°
2026-04-30 03:39 9.03222 -79.40131 405 ft 149 kts 27°
2026-04-30 03:40 9.04115 -79.39627 224 ft 146 kts 27°
2026-04-30 03:40 9.04971 -79.39141 45 ft 138 kts 27°
2026-04-30 03:40 9.05729 -79.38711 36 ft 103 kts 29°
2026-04-30 03:40 9.06215 -79.38434 36 ft 60 kts 29°
2026-04-30 03:41 9.06391 -79.38377 34 ft 21 kts
2026-04-30 03:41 9.06531 -79.38377 34 ft 19 kts 359°